Location: Allentsteig
(48.6833°N, 15.3167°E)
Time: 00:43:09
(UTC+00:00)

Cosmos 1943 Rocket - Pass Details

Date: 18 September 2020
Orbit: 814 x 842 km, 71.0° (Epoch: 31 October)

Event Time Altitude Azimuth Distance (km) Brightness Sun altitude
Exits shadow 22:35:30 18° 31° (NNE) 1,935 4.4 -39.8°
Drops below altitude 10° 22:36:52 10° 30° (NNE) 2,444 5.1 -39.8°
Sets 22:39:18 0° 30° (NNE) 3,377 6.0 -39.8°
